Location: Praha
(50.0830°N, 14.4670°E)
Time: 17:48:59
(UTC+02:00)

ISS - Pass Details

Date: 20 May 2020
Orbit: 417 x 420 km, 51.6° (Epoch: 26 May)

Event Time Altitude Azimuth Distance (km) Brightness Sun altitude
Rises 01:29:28 0° 287° (WNW) 2,370 0.2 -19.6°
Reaches altitude 10° 01:31:34 10° 284° (WNW) 1,504 -0.9 -19.5°
Enters shadow 01:33:38 33° 273° (W) 723 -2.7 -19.5°
